timestamp,surface_pressure_avg,surface_temp_avg,battery_voltage,lat,long
2021-07-01 00:09:01+00:00,227.8597,13.68,13.21,47.84626,-54.09684
2021-07-01 00:19:01+00:00,230.2615,13.68,12.81,47.84626,-54.09684
2021-07-01 00:29:01+00:00,232.9097,13.68,12.81,47.84626,-54.09684
2021-07-01 00:39:01+00:00,234.6697,13.68,12.81,47.84626,-54.09684
2021-07-01 00:49:01+00:00,236.6564,13.68,12.81,47.84626,-54.09684
2021-07-01 00:59:01+00:00,241.3464,13.67,12.81,47.84626,-54.09684
2021-07-01 01:09:01+00:00,245.9014,13.68,12.81,47.84626,-54.09684
2021-07-01 01:19:01+00:00,250.1898,13.69,12.73,47.84626,-54.09684
2021-07-01 01:29:01+00:00,256.0114,13.69,12.73,47.84626,-54.09684
2021-07-01 01:39:01+00:00,263.4964,13.7,12.73,47.84626,-54.09684
2021-07-01 01:49:01+00:00,266.5531,13.7,12.73,47.84626,-54.09684
2021-07-01 01:59:01+00:00,270.2014,13.77,12.73,47.84626,-54.09684
2021-07-01 02:09:01+00:00,278.9697,13.8,12.73,47.84626,-54.09684
2021-07-01 02:19:01+00:00,291.5015,13.8,12.73,47.84626,-54.09684
2021-07-01 02:29:01+00:00,298.6313,13.83,12.73,47.84626,-54.09684
2021-07-01 02:39:01+00:00,303.1397,13.88,12.73,47.84626,-54.09684
2021-07-01 02:49:01+00:00,308.7113,13.9,12.73,47.84626,-54.09684
2021-07-01 02:59:01+00:00,316.6863,13.9,12.73,47.84626,-54.09684
2021-07-01 03:09:01+00:00,320.8214,13.9,12.73,47.84626,-54.09684
2021-07-01 03:19:00+00:00,325.8329,13.9,12.73,47.84626,-54.09684
2021-07-01 03:29:00+00:00,331.1513,13.9,12.73,47.84626,-54.09684
2021-07-01 03:39:00+00:00,336.7746,13.9,12.73,47.84626,-54.09684
2021-07-01 03:49:00+00:00,338.8130000000001,13.9,12.73,47.84626,-54.09684
2021-07-01 03:59:00+00:00,343.0297,13.9,12.73,47.84626,-54.09684
2021-07-01 04:09:00+00:00,345.7396,13.9,12.73,47.84626,-54.09684
2021-07-01 04:19:00+00:00,344.2929,13.9,12.65,47.84626,-54.09684
2021-07-01 04:29:00+00:00,341.14300000000014,13.9,12.65,47.84626,-54.09684
2021-07-01 04:39:00+00:00,338.6946,13.9,12.65,47.84626,-54.09684
2021-07-01 04:49:00+00:00,338.1246,13.9,12.65,47.84626,-54.09684
2021-07-01 04:59:00+00:00,336.3813,13.9,12.65,47.84626,-54.09684
2021-07-01 05:09:00+00:00,338.1979,13.9,12.65,47.84626,-54.09684
2021-07-01 05:19:01+00:00,338.2445,13.9,12.65,47.84626,-54.09684
2021-07-01 05:29:01+00:00,335.083,13.9,12.65,47.84626,-54.09684
2021-07-01 05:39:01+00:00,335.2762,13.9,12.65,47.84626,-54.09684
2021-07-01 05:49:01+00:00,334.2496,13.9,12.65,47.84626,-54.09684
2021-07-01 05:59:01+00:00,332.228,13.9,12.65,47.84626,-54.09684
2021-07-01 06:09:01+00:00,327.7197,13.9,12.65,47.84626,-54.09684
2021-07-01 06:19:01+00:00,326.4897,13.9,12.65,47.84626,-54.09684
2021-07-01 06:29:01+00:00,323.3313,13.9,12.65,47.84626,-54.09684
2021-07-01 06:39:01+00:00,315.423,13.9,12.65,47.84626,-54.09684
2021-07-01 06:49:01+00:00,311.3846,13.9,12.65,47.84626,-54.09684
2021-07-01 06:59:01+00:00,308.803,13.9,12.65,47.84626,-54.09684
2021-07-01 07:09:01+00:00,301.3864,13.9,12.65,47.84626,-54.09684
2021-07-01 07:19:01+00:00,293.6064,13.9,12.65,47.84626,-54.09684
2021-07-01 07:29:01+00:00,292.3381,13.9,12.65,47.84626,-54.09684
2021-07-01 07:39:01+00:00,286.098,13.9,12.65,47.84626,-54.09684
2021-07-01 07:49:01+00:00,275.9998,13.9,12.65,47.84626,-54.09684
2021-07-01 07:59:01+00:00,268.1398,13.9,12.65,47.84626,-54.09684
2021-07-01 08:09:01+00:00,258.5247,13.9,12.65,47.84626,-54.09684
2021-07-01 08:19:01+00:00,247.1598,13.9,12.65,47.84626,-54.09684
2021-07-01 08:29:01+00:00,243.0414,13.9,12.65,47.84626,-54.09684
2021-07-01 08:39:01+00:00,243.0631,13.9,12.65,47.84626,-54.09684
2021-07-01 08:49:01+00:00,233.9598,13.9,12.65,47.84626,-54.09684
2021-07-01 08:59:01+00:00,223.4181,13.9,12.65,47.84626,-54.09684
2021-07-01 09:09:01+00:00,220.5631,14.0,12.65,47.84626,-54.09684
2021-07-01 09:19:01+00:00,218.6914,14.0,12.65,47.84626,-54.09684
2021-07-01 09:29:01+00:00,213.5681,14.0,12.65,47.84626,-54.09684
2021-07-01 09:39:01+00:00,214.9998,14.0,12.65,47.84626,-54.09684
2021-07-01 09:49:01+00:00,216.3931,14.0,12.65,47.84626,-54.09684
2021-07-01 09:59:01+00:00,208.4164,14.01,12.65,47.84626,-54.09684
2021-07-01 10:09:01+00:00,205.9798,14.05,12.65,47.84626,-54.09684
2021-07-01 10:19:01+00:00,213.0565,14.06,12.65,47.84626,-54.09684
2021-07-01 10:29:01+00:00,214.1764,14.03,12.65,47.84626,-54.09684
2021-07-01 10:39:01+00:00,208.2598,14.0,12.65,47.84626,-54.09684
2021-07-01 10:49:01+00:00,208.3315,14.07,12.65,47.84626,-54.09684
2021-07-01 10:59:01+00:00,215.0648,14.1,12.65,47.84626,-54.09684
2021-07-01 11:09:01+00:00,216.5897,14.1,12.65,47.84626,-54.09684
2021-07-01 11:19:01+00:00,214.8698,14.1,12.65,47.84626,-54.09684
2021-07-01 11:29:01+00:00,219.5548,14.1,12.65,47.84626,-54.09684
2021-07-01 11:39:01+00:00,230.2548,14.1,12.65,47.84626,-54.09684
2021-07-01 11:49:01+00:00,231.6914,14.1,12.65,47.84626,-54.09684
2021-07-01 11:59:01+00:00,229.7014,14.1,12.65,47.84626,-54.09684
2021-07-01 12:09:01+00:00,235.4564,14.1,12.65,47.84626,-54.09684
2021-07-01 12:19:01+00:00,240.3748,14.12,12.73,47.84626,-54.09684
2021-07-01 12:29:01+00:00,238.0332,14.11,12.73,47.84626,-54.09684
2021-07-01 12:39:01+00:00,235.4498,14.13,12.73,47.84626,-54.09684
2021-07-01 12:49:01+00:00,239.5781,14.1,12.73,47.84626,-54.09684
2021-07-01 12:59:01+00:00,244.5996,14.1,12.73,47.84626,-54.09684
2021-07-01 13:09:01+00:00,241.6264,14.1,12.73,47.84626,-54.09684
2021-07-01 13:19:01+00:00,240.1331,14.1,12.73,47.84626,-54.09684
2021-07-01 13:29:01+00:00,249.1497,14.1,12.73,47.84626,-54.09684
2021-07-01 13:39:01+00:00,257.7181,13.9,12.73,47.84626,-54.09684
2021-07-01 13:49:01+00:00,256.1547,13.96,12.73,47.84626,-54.09684
2021-07-01 13:59:01+00:00,251.8464,14.01,12.73,47.84626,-54.09684
2021-07-01 14:09:01+00:00,264.8764,14.0,12.73,47.84626,-54.09684
2021-07-01 14:19:01+00:00,277.0764,13.9,12.73,47.84626,-54.09684
2021-07-01 14:29:01+00:00,275.1897,13.9,12.73,47.84626,-54.09684
2021-07-01 14:39:01+00:00,269.9764,14.0,12.73,47.84626,-54.09684
2021-07-01 14:49:01+00:00,282.7047,13.9,12.73,47.84626,-54.09684
2021-07-01 14:59:01+00:00,291.7747,13.9,12.73,47.84626,-54.09684
2021-07-01 15:09:01+00:00,291.1364,13.9,12.73,47.84626,-54.09684
2021-07-01 15:19:00+00:00,291.7547,13.99,12.81,47.84626,-54.09684
2021-07-01 15:29:00+00:00,306.238,13.9,12.81,47.84626,-54.09684
2021-07-01 15:39:00+00:00,315.093,13.9,12.81,47.84626,-54.09684
2021-07-01 15:49:00+00:00,314.683,13.93,12.81,47.84626,-54.09684
2021-07-01 15:59:00+00:00,311.803,14.0,12.81,47.84626,-54.09684
2021-07-01 16:09:00+00:00,315.0179,13.9,12.81,47.84626,-54.09684
2021-07-01 16:19:01+00:00,317.0063,13.9,13.05,47.84626,-54.09684
2021-07-01 16:29:01+00:00,314.8162,13.98,13.05,47.84626,-54.09684
2021-07-01 16:39:01+00:00,315.3381,14.0,13.05,47.84626,-54.09684
2021-07-01 16:49:01+00:00,319.3947,13.9,13.05,47.84626,-54.09684
2021-07-01 16:59:01+00:00,323.2397,13.87,13.05,47.84626,-54.09684
2021-07-01 17:09:01+00:00,320.8814,13.89,13.05,47.84626,-54.09684
2021-07-01 17:19:01+00:00,319.3879,13.89,13.21,47.84626,-54.09684
2021-07-01 17:29:01+00:00,320.553,13.9,13.21,47.84626,-54.09684
2021-07-01 17:39:01+00:00,321.378,13.91,13.21,47.84626,-54.09684
2021-07-01 17:49:01+00:00,317.6413,13.99,13.21,47.84626,-54.09684
2021-07-01 17:59:01+00:00,315.258,14.0,13.21,47.84626,-54.09684
2021-07-01 18:09:01+00:00,318.2831,14.0,13.21,47.84626,-54.09684
2021-07-01 18:19:01+00:00,321.5714,14.0,13.29,47.84626,-54.09684
2021-07-01 18:29:01+00:00,317.2263,14.0,13.29,47.84626,-54.09684
2021-07-01 18:39:01+00:00,311.7097,14.0,13.29,47.84626,-54.09684
2021-07-01 18:49:01+00:00,308.7064,14.0,13.29,47.84626,-54.09684
2021-07-01 18:59:01+00:00,302.6047,14.0,13.29,47.84626,-54.09684
2021-07-01 19:09:01+00:00,299.4696,14.0,13.29,47.84626,-54.09684
2021-07-01 19:19:01+00:00,302.0613,14.0,13.21,47.84626,-54.09684
2021-07-01 19:29:01+00:00,299.743,14.0,13.21,47.84626,-54.09684
2021-07-01 19:39:01+00:00,286.9097,14.0,13.21,47.84626,-54.09684
2021-07-01 19:49:01+00:00,280.2214,14.0,13.21,47.84626,-54.09684
2021-07-01 19:59:01+00:00,279.7814,13.98,13.21,47.84626,-54.09684
2021-07-01 20:09:01+00:00,270.5414,13.95,13.21,47.84626,-54.09684
2021-07-01 20:19:01+00:00,259.3264,13.84,13.21,47.84626,-54.09684
2021-07-01 20:29:01+00:00,259.9097,13.97,13.21,47.84626,-54.09684
2021-07-01 20:39:01+00:00,257.3647,13.99,13.21,47.84626,-54.09684
2021-07-01 20:49:01+00:00,246.7714,13.99,13.21,47.84626,-54.09684
2021-07-01 20:59:01+00:00,236.7081,13.9,13.21,47.84626,-54.09684
2021-07-01 21:09:01+00:00,231.9098,13.91,13.21,47.84626,-54.09684
2021-07-01 21:19:01+00:00,226.4964,13.94,13.13,47.84626,-54.09684
2021-07-01 21:29:01+00:00,221.5547,13.96,13.13,47.84626,-54.09684
2021-07-01 21:39:01+00:00,218.7247,13.96,13.13,47.84626,-54.09684
2021-07-01 21:49:01+00:00,214.7198,13.96,13.13,47.84626,-54.09684
2021-07-01 21:59:01+00:00,212.6714,13.93,13.13,47.84626,-54.09684
2021-07-01 22:09:01+00:00,210.5948,13.9,13.13,47.84626,-54.09684
2021-07-01 22:19:01+00:00,210.4231,13.92,12.97,47.84626,-54.09684
2021-07-01 22:29:01+00:00,210.4464,13.93,12.97,47.84626,-54.09684
2021-07-01 22:39:01+00:00,212.0314,13.9,12.97,47.84626,-54.09684
2021-07-01 22:49:01+00:00,215.5214,13.9,12.97,47.84626,-54.09684
2021-07-01 22:59:01+00:00,211.8365,13.9,12.97,47.84626,-54.09684
2021-07-01 23:09:01+00:00,208.1965,13.9,12.97,47.84626,-54.09684
2021-07-01 23:19:01+00:00,218.0697,13.9,12.81,47.84626,-54.09684
2021-07-01 23:29:01+00:00,223.5081,13.9,12.81,47.84626,-54.09684
2021-07-01 23:39:01+00:00,218.6931,13.86,12.81,47.84626,-54.09684
2021-07-01 23:49:01+00:00,217.9897,13.88,12.81,47.84626,-54.09684
2021-07-01 23:59:01+00:00,220.5098,13.89,12.81,47.84626,-54.09684
